Theta_e
351 353 352 352 351 349 349 349 349 348 348 347 345 345 345 344 344 347 347 347 347 347 346 346 347 344 343 344 346 350 352 354 354
347 349 353 353 351 350 349 349 349 348 349 348 347 346 345 345 344 345 347 346 345 347 346 345 340 340 343 343 343 345 351 354 354
342 346 348 351 351 350 350 349 349 348 348 349 348 347 347 347 347 346 346 347 346 346 345 344 345 339 341 344 344 344 347 353 355
343 346 347 348 352 351 350 349 349 349 348 348 349 348 348 348 348 348 348 348 347 346 344 344 344 342 342 345 346 346 347 348 353
339 344 346 347 350 351 350 350 349 349 348 348 348 348 348 348 348 348 349 348 348 347 346 344 345 345 342 342 344 346 349 352 353
334 343 345 347 347 351 352 352 351 350 349 348 348 348 349 349 349 349 349 349 348 348 347 345 345 345 345 342 349 347 348 351 353
329 331 342 345 346 349 350 350 352 351 350 349 348 348 349 350 350 349 349 349 349 349 347 346 345 345 345 344 346 348 348 351 352
345 344 338 340 345 348 350 350 350 351 351 350 349 349 350 350 350 350 350 350 350 350 349 347 346 346 346 346 349 347 348 350 352
342 346 347 343 343 347 351 349 349 350 351 350 349 350 350 351 351 351 351 350 350 351 350 349 348 349 348 349 349 347 346 345 350
340 342 343 345 349 346 351 348 348 350 350 351 350 350 350 351 352 352 351 351 351 351 352 353 352 351 351 351 350 346 345 345 346
334 338 342 342 344 348 346 346 346 348 349 350 350 350 350 350 352 352 352 351 351 351 351 351 351 352 352 352 351 347 345 345 346
325 332 337 340 346 349 340 346 347 348 350 351 351 351 351 350 350 351 352 352 352 352 352 352 351 351 351 351 350 348 346 347 348
320 328 335 340 351 346 342 347 346 349 351 351 352 351 351 351 351 351 351 352 352 352 353 353 353 353 353 352 352 349 347 348 350
319 322 334 340 349 351 348 347 348 350 351 352 351 351 351 352 351 351 352 352 353 354 354 355 356 356 356 356 355 354 351 351 351
319 320 327 335 340 345 351 348 348 350 351 350 350 351 352 353 353 352 353 354 354 354 355 356 356 357 358 358 359 358 356 354 355
320 319 319 326 332 337 341 348 351 349 351 348 350 351 352 353 354 354 354 355 356 357 357 356 357 358 358 358 359 361 360 358 357
322 320 319 321 322 326 330 337 342 347 352 352 350 350 351 352 353 354 354 355 355 355 356 357 357 358 359 360 360 361 362 361 359
318 321 320 321 322 322 323 325 331 336 343 352 356 355 353 350 351 352 355 354 355 356 356 357 358 359 360 361 362 362 362 363 362
316 317 320 321 321 321 321 321 322 327 332 339 346 349 352 353 359 358 355 354 353 354 355 357 357 358 359 361 360 361 360 359 360
315 317 319 319 321 321 320 320 320 323 327 330 335 340 345 347 350 354 358 359 357 357 354 354 355 356 357 358 359 360 360 360 361
Wind_Speed
22 24 24 25 26 32 35 37 37 35 34 34 35 36 36 38 37 28 28 27 24 21 19 19 19 21 19 18 16 14 13 11 10
19 23 25 28 28 36 36 36 38 37 37 36 36 38 37 36 37 35 29 31 31 23 22 17 20 21 19 18 18 17 16 14 15
18 20 23 23 24 33 36 39 39 39 39 38 39 38 38 36 37 39 38 30 33 29 27 22 18 21 23 20 19 18 17 15 15
17 18 21 24 24 34 37 37 37 39 38 37 36 36 36 36 35 34 33 32 33 32 32 28 24 23 23 21 19 19 17 17 16
16 17 19 22 25 30 33 35 38 41 40 39 39 38 37 35 36 34 32 33 31 31 32 31 28 27 27 25 23 21 20 17 15
7 13 15 16 18 21 28 34 36 38 40 41 41 38 37 35 35 33 34 34 33 31 32 34 31 30 29 29 24 23 22 20 18
5 5 12 15 17 20 26 32 36 37 38 40 40 39 38 36 35 36 37 35 33 32 34 34 33 34 34 33 29 26 25 22 21
9 8 7 11 18 18 22 28 32 35 36 36 38 38 37 37 36 37 34 31 32 31 31 34 35 34 34 33 29 29 28 25 23
9 11 11 11 14 18 20 28 33 36 37 38 39 38 37 36 34 34 33 34 33 31 32 31 32 33 33 31 30 32 34 33 26
11 12 13 13 13 17 22 32 37 37 41 38 39 38 36 35 35 34 35 33 31 32 32 28 30 30 28 30 32 38 39 38 34
14 15 16 16 14 15 29 33 34 30 33 37 36 35 34 34 34 33 31 31 30 30 28 29 30 29 29 29 33 38 39 38 36
13 13 14 16 23 24 25 32 33 32 32 34 33 33 33 34 34 31 30 30 30 29 28 28 30 31 30 33 34 36 37 35 27
16 12 14 15 18 17 26 30 35 33 32 33 34 36 36 33 32 31 31 32 32 33 32 30 27 26 28 31 32 36 37 34 26
15 13 15 13 11 4 15 28 32 30 30 33 32 28 28 29 32 33 33 30 28 27 27 25 26 27 26 26 28 30 34 32 29
15 16 18 20 17 18 11 13 25 25 24 21 24 27 28 29 29 28 26 27 26 27 26 25 25 24 23 23 25 29 29 31 32
12 14 17 22 20 23 25 23 12 12 9 13 21 24 26 27 27 28 26 26 24 22 23 23 23 23 22 21 21 22 27 32 30
10 15 17 20 20 22 23 25 24 19 12 5 17 21 21 21 22 23 24 22 22 22 22 23 23 21 21 20 19 19 19 20 29
10 14 16 15 17 19 21 24 25 23 20 13 9 9 10 15 16 20 19 21 20 21 21 22 21 21 20 19 19 20 20 18 16
12 15 16 17 18 19 19 21 22 21 20 17 14 13 13 10 4 8 13 15 15 21 20 22 27 24 20 18 21 17 18 17 18
15 11 13 15 16 17 18 20 21 20 18 17 16 13 11 11 10 4 9 9 7 8 13 25 25 25 27 28 24 18 21 18 17
Wind_Direction
209 208 209 206 202 201 201 200 199 199 200 203 205 210 212 218 223 222 228 233 234 237 239 236 233 238 239 240 242 247 251 257 254
213 208 208 207 203 202 200 199 200 200 200 202 203 207 212 216 221 222 225 227 236 238 243 241 241 235 237 239 241 244 245 248 255
222 212 208 207 207 205 201 199 199 199 202 202 204 206 210 214 218 226 229 228 232 231 239 241 234 234 236 240 244 247 246 245 249
219 209 205 205 205 204 201 198 196 199 200 202 203 205 208 209 214 218 222 225 233 233 239 240 236 236 235 238 241 244 245 248 245
242 226 211 203 203 201 201 200 197 196 200 201 204 206 206 209 213 214 218 221 226 231 234 237 238 238 237 238 241 244 246 245 244
257 237 222 210 203 201 198 198 198 199 199 202 204 203 205 207 208 209 215 220 222 226 231 236 235 236 238 238 235 239 244 246 248
321 250 219 208 205 203 201 200 199 198 201 202 201 201 204 205 204 207 213 217 218 221 229 232 232 235 238 240 240 241 242 242 246
314 307 282 225 213 205 201 199 198 200 201 198 198 196 200 204 204 208 211 211 214 219 222 230 233 234 236 238 239 241 241 239 240
322 313 310 288 243 212 201 199 197 195 194 193 191 195 198 200 201 203 205 209 210 212 219 224 227 229 233 234 235 239 240 240 240
328 314 304 288 268 235 205 199 193 194 192 188 190 194 196 196 198 200 202 206 208 210 214 218 223 227 228 233 238 242 245 247 244
335 328 315 301 281 261 219 206 198 195 190 187 189 192 195 195 197 200 201 202 206 210 214 215 218 225 228 232 241 247 250 250 246
339 320 309 299 284 265 227 203 189 183 184 184 186 192 196 197 197 197 197 201 204 208 211 216 220 226 228 231 240 245 251 249 238
338 333 335 324 303 244 193 190 182 174 177 182 191 193 196 195 194 195 197 200 203 208 211 219 223 227 229 232 237 246 250 247 235
331 336 11 4 21 82 178 171 171 172 175 190 196 194 192 192 194 198 202 202 204 205 211 219 222 225 229 232 237 242 248 248 233
339 347 16 29 46 53 75 157 165 173 182 185 182 184 188 192 195 200 206 204 204 206 208 214 222 228 234 236 238 242 244 247 242
345 341 3 31 41 56 56 62 106 138 156 178 185 186 189 193 194 199 200 199 204 207 211 216 221 224 230 235 234 236 244 243 247
338 346 359 15 35 45 45 52 61 61 59 154 191 194 196 197 198 198 200 205 207 209 213 216 222 223 226 229 231 231 234 240 240
336 347 353 14 27 39 42 44 47 46 49 68 132 162 184 197 192 196 203 204 207 212 217 219 220 224 227 227 227 230 228 223 224
332 340 349 5 23 28 30 39 42 39 39 41 54 68 79 75 157 167 209 210 214 219 219 223 226 228 230 238 243 242 247 251 249
326 334 354 360 7 16 14 22 29 26 28 33 38 40 62 45 30 257 197 180 171 213 240 240 242 241 241 241 242 245 246 250 246